Location: Saint-Hippolyte
(43.6394°N, 4.7559°E)
Time: 16:09:56
(UTC+00:00)

Cosmos 1452 Rocket - Pass Details

Date: 24 October 2020
Orbit: 766 x 775 km, 74.1° (Epoch: 24 November)

Event Time Altitude Azimuth Distance (km) Brightness Sun altitude
Rises 17:07:29 0° 203° (SSW) 3,225 7.3 -5.2°
Reaches altitude 10° 17:09:51 10° 205° (SSW) 2,304 6.5 -5.6°
Maximum altitude 17:15:05 76° 291° (WNW) 797 3.8 -6.5°
Drops below altitude 10° 17:20:23 10° 18° (NNE) 2,326 5.7 -7.5°
Sets 17:22:47 0° 20° (NNE) 3,259 6.5 -7.9°
